User: anonymous   Login
Location: Ústí nad Labem
(50.6611°N, 14.0531°E)
Time: 05:28:02
(UTC+02:00)
Language:

Vanguard 2 - Orbit

View from above orbital plane
View from above orbital plane
View from above satellite
View from above satellite

Ground track
Ground track

The orbit data is extracted from the following two-line orbital elements,

1    11U 59001A   24112.63392162  .00005092  00000-0  26718-2 0  9991
2    11  32.8771 177.4656 1457171 267.5955  75.7626 11.88099316783527
Epoch (UTC): 21 April 2024 15:12:50
Eccentricity: 0.1457171
inclination: 32.8771°
perigee height: 552 km
apogee height: 2917 km
right ascension of ascending node: 177.4656°
argument of perigee: 267.5955°
revolutions per day: 11.88099316
mean anomaly at epoch: 75.7626°
orbit number at epoch: 78352

The dashed part of the orbit path shows where the satellite is in the earth's shadow,  

DLR